AD8BW Weather Reports


time (UTC)temp
F
wind
direction
speed
knots
gust
knots
rain 1hr
in
rain 24hr
in
rain mn
in
humidity
%
barometer
mb
20260905122817 65 40 0.0 3.5 0.00 0.08 0.00 92 1015.1
20260905121816 65 49 1.7 3.5 0.00 0.08 0.00 93 1014.9
20260905120820 66 57 0.0 4.3 0.00 0.08 0.00 93 1015.0
20260905115815 66 49 0.0 3.5 0.00 0.08 0.00 93 1014.9
20260905114815 66 49 0.0 4.3 0.00 0.08 0.00 93 1014.9
20260905113813 66 54 0.0 3.5 0.00 0.08 0.00 94 1014.8
20260905112810 66 41 1.7 4.3 0.00 0.08 0.00 93 1014.8
20260905111810 66 42 0.0 3.5 0.00 0.08 0.00 93 1014.8
20260905110811 66 42 0.0 3.5 0.00 0.08 0.00 93 1014.7
20260905105813 66 30 0.0 0.0 0.00 0.08 0.00 93 1014.6
20260905104812 66 30 0.0 0.0 0.00 0.08 0.00 94 1014.7
20260905103812 66 11 0.0 0.0 0.00 0.08 0.00 93 1014.7
20260905102808 66 11 0.0 0.0 0.00 0.08 0.00 94 1014.7
20260905101807 66 329 0.0 0.0 0.00 0.08 0.00 94 1014.6
20260905100808 66 49 0.0 0.0 0.00 0.08 0.00 94 1014.4
20260905095809 66 49 0.0 0.0 0.00 0.08 0.00 93 1014.5
20260905094807 66 49 0.0 0.0 0.00 0.08 0.00 93 1014.4
20260905093806 66 49 0.0 0.0 0.00 0.08 0.00 93 1014.7
20260905092807 67 49 0.0 0.0 0.00 0.08 0.00 93 1014.8
20260905091808 67 49 0.0 0.0 0.00 0.08 0.00 93 1014.7
20260905090813 67 49 0.0 0.0 0.00 0.08 0.00 93 1014.6
20260905085807 67 49 0.0 0.0 0.00 0.08 0.00 93 1014.3
20260905084805 67 49 0.0 0.0 0.00 0.08 0.00 93 1014.3
20260905083807 67 49 0.0 0.0 0.00 0.08 0.00 93 1014.2
20260905082803 67 49 0.0 0.0 0.00 0.08 0.00 93 1014.1
20260905081804 67 49 0.0 0.0 0.00 0.08 0.00 93 1013.9
20260905080806 67 48 0.0 0.0 0.00 0.08 0.00 93 1014.0
20260905075801 67 48 0.0 0.0 0.00 0.08 0.00 93 1014.0
20260905074803 67 48 0.0 0.0 0.00 0.08 0.00 93 1014.5
20260905073801 67 48 0.0 0.0 0.00 0.08 0.00 93 1014.5
20260905072803 67 48 0.0 0.0 0.00 0.08 0.00 93 1014.2
20260905071803 67 48 0.0 0.0 0.00 0.08 0.00 93 1014.0
20260905070802 67 48 0.0 0.0 0.00 0.08 0.00 93 1014.2
20260905065757 67 48 0.0 3.5 0.00 0.08 0.00 92 1014.2
20260905064755 67 48 0.0 3.5 0.00 0.08 0.00 92 1013.7
20260905063758 67 48 1.7 4.3 0.00 0.08 0.00 92 1013.7
20260905062758 67 41 0.0 4.3 0.00 0.08 0.00 92 1013.9
20260905061754 67 42 1.7 3.5 0.00 0.08 0.00 92 1014.0
20260905060755 67 53 0.0 3.5 0.00 0.08 0.00 92 1014.2
20260905055750 67 42 0.0 0.0 0.00 0.08 0.00 92 1014.3
20260905054750 67 45 0.0 0.0 0.00 0.08 0.00 92 1014.6
20260905053752 67 45 0.0 0.0 0.00 0.08 0.00 92 1014.7
20260905052750 68 45 0.0 0.0 0.00 0.08 0.00 92 1014.6
20260905051751 68 45 0.0 0.0 0.00 0.08 0.00 92 1014.4
20260905050751 68 45 0.0 0.0 0.00 0.08 0.00 92 1014.3
20260905045754 68 45 0.0 0.0 0.00 0.08 0.00 92 1014.4
20260905044749 68 45 0.0 0.0 0.00 0.08 0.00 92 1014.4
20260905043752 69 45 0.0 0.0 0.00 0.08 0.00 92 1014.5
20260905042744 69 45 0.0 0.0 0.00 0.08 0.00 92 1014.5
20260905041745 69 45 0.0 0.0 0.00 0.08 0.00 92 1014.5
20260905040743 69 45 0.0 0.0 0.00 0.08 0.00 92 1014.6
20260905035744 69 45 0.0 0.0 0.00 0.08 0.08 92 1014.6
20260905034741 69 45 0.0 0.0 0.00 0.08 0.08 92 1014.7
20260905033744 69 45 0.0 0.0 0.00 0.08 0.08 92 1014.9
20260905032744 70 45 0.0 0.0 0.00 0.08 0.08 92 1014.9
20260905031740 70 45 0.0 0.0 0.00 0.08 0.08 92 1015.2
20260905030737 70 41 0.0 0.0 0.00 0.08 0.08 92 1015.4
20260905025736 70 41 0.0 0.0 0.00 0.08 0.08 92 1015.2
20260905024736 70 46 0.0 1.7 0.00 0.08 0.08 92 1015.1
20260905023735 71 46 0.0 3.5 0.00 0.08 0.08 92 1015.0
20260905022732 71 46 0.0 3.5 0.00 0.08 0.08 92 1015.0
20260905021730 71 46 0.0 1.7 0.00 0.08 0.08 92 1015.1
20260905020733 71 46 0.0 3.5 0.00 0.08 0.08 91 1015.1
20260905015732 71 52 0.0 0.0 0.00 0.08 0.08 91 1015.1
20260905014730 71 52 0.0 1.7 0.00 0.08 0.08 91 1015.4
20260905013729 71 52 0.0 1.7 0.00 0.08 0.08 91 1015.2
20260905012729 72 52 1.7 4.3 0.00 0.08 0.08 91 1015.2
20260905011733 72 54 1.7 4.3 0.00 0.08 0.08 90 1015.1
20260905010731 73 5 1.7 4.3 0.00 0.08 0.08 90 1015.0
20260905005725 73 73 1.7 4.3 0.00 0.08 0.08 89 1014.7
20260905004722 74 51 3.5 4.3 0.00 0.08 0.08 88 1014.7
20260905003722 75 42 1.7 3.5 0.00 0.08 0.08 88 1014.7
20260905002723 75 34 0.0 4.3 0.00 0.08 0.08 88 1014.6
20260905001722 75 329 0.0 0.0 0.00 0.08 0.08 87 1014.5
20260905000722 75 329 0.0 0.0 0.00 0.08 0.08 86 1014.3
20260904235719 76 329 0.0 0.0 0.00 0.08 0.08 87 1014.3
20260904234719 76 329 0.0 0.0 0.00 0.08 0.08 86 1014.3
20260904233729 76 329 0.0 0.0 0.00 0.08 0.08 86 1014.3
20260904232721 76 329 0.0 0.0 0.00 0.08 0.08 86 1014.1
20260904231716 76 329 0.0 0.0 0.00 0.08 0.08 86 1014.1
20260904230714 76 329 0.0 0.0 0.00 0.08 0.08 86 1013.9
20260904225716 76 329 0.0 0.0 0.00 0.08 0.08 86 1013.9
20260904224713 76 317 0.0 0.0 0.00 0.08 0.08 85 1013.7
20260904223713 76 317 0.0 0.0 0.00 0.08 0.08 85 1013.6
20260904222719 76 316 0.0 3.5 0.00 0.08 0.08 85 1013.7
20260904221716 76 344 0.0 3.5 0.00 0.08 0.08 85 1013.6
20260904220715 76 319 0.0 3.5 0.00 0.08 0.08 84 1013.6
20260904215712 76 310 0.0 4.3 0.00 0.08 0.08 84 1013.6
20260904214715 76 327 1.7 4.3 0.00 0.08 0.08 84 1013.5
20260904213714 76 325 0.0 3.5 0.00 0.08 0.08 84 1013.4
20260904212711 76 339 1.7 6.1 0.00 0.08 0.08 83 1013.2
20260904211710 76 287 1.7 4.3 0.00 0.08 0.08 83 1013.3
20260904210711 76 325 3.5 7.8 0.00 0.08 0.08 83 1013.3
20260904205714 76 320 3.5 7.8 0.00 0.08 0.08 83 1013.2
20260904204712 76 319 3.5 6.1 0.00 0.08 0.08 82 1013.1
20260904203716 77 336 1.7 4.3 0.00 0.08 0.08 83 1013.1
20260904202713 76 309 1.7 6.1 0.00 0.08 0.08 83 1013.0
20260904201709 76 326 1.7 6.1 0.00 0.08 0.08 83 1013.0
20260904200711 76 334 1.7 4.3 0.00 0.08 0.08 85 1013.3
20260904195714 76 170 1.7 4.3 0.00 0.08 0.08 85 1013.3
20260904194712 75 318 0.0 3.5 0.00 0.08 0.08 86 1013.5
20260904193712 75 182 0.0 4.3 0.00 0.08 0.08 86 1013.7
20260904192710 75 195 1.7 9.6 0.00 0.08 0.08 86 1013.8
20260904191709 75 229 1.7 6.1 0.00 0.08 0.08 88 1013.9
20260904190711 74 209 1.7 7.8 0.00 0.08 0.08 87 1013.9
20260904185711 75 205 0.0 4.3 0.00 0.08 0.08 88 1013.9
20260904184709 75 193 1.7 6.1 0.00 0.08 0.08 88 1014.1
20260904183710 74 164 1.7 6.1 0.00 0.08 0.08 88 1014.0
20260904182711 74 200 0.0 3.5 0.00 0.08 0.08 91 1014.0
20260904181710 74 174 1.7 6.1 0.00 0.08 0.08 93 1014.1
20260904180709 74 204 1.7 7.8 0.00 0.08 0.08 94 1014.3
20260904175706 74 215 1.7 9.6 0.00 0.08 0.08 95 1014.4
20260904174712 73 200 1.7 9.6 0.00 0.08 0.08 95 1014.4
20260904173704 73 191 1.7 6.1 0.00 0.08 0.08 95 1014.3
20260904172703 73 191 1.7 3.5 0.00 0.08 0.08 96 1014.4
20260904171704 72 191 1.7 6.1 0.00 0.08 0.08 96 1014.4
20260904170701 72 185 1.7 6.1 0.00 0.08 0.08 96 1014.5
20260904165701 71 179 0.0 4.3 0.00 0.08 0.08 97 1014.4
20260904164702 71 186 0.0 4.3 0.00 0.08 0.08 97 1014.6
20260904163700 71 174 0.0 0.0 0.00 0.08 0.08 97 1014.8
20260904162705 70 200 0.0 0.0 0.00 0.08 0.08 97 1014.8
20260904161708 69 200 0.0 1.7 0.00 0.08 0.08 97 1015.4
20260904160702 69 168 0.0 1.7 0.00 0.08 0.08 97 1015.5
20260904155656 69 168 0.0 1.7 0.00 0.08 0.08 97 1015.5
20260904154657 69 188 0.0 3.5 0.00 0.08 0.08 97 1016.0
20260904153657 69 183 0.0 3.5 0.01 0.08 0.08 97 1016.2
20260904152654 69 171 0.0 3.5 0.02 0.08 0.08 97 1016.3
20260904151657 69 196 1.7 4.3 0.03 0.08 0.08 97 1016.3
20260904150656 68 183 1.7 6.1 0.05 0.08 0.08 97 1016.4
20260904145657 68 175 1.7 6.1 0.05 0.08 0.08 97 1016.1
20260904144657 68 204 0.0 6.1 0.05 0.08 0.08 97 1016.4
20260904143654 68 177 1.7 4.3 0.05 0.07 0.07 97 1016.0
20260904142655 68 195 0.0 3.5 0.04 0.06 0.06 97 1016.0
20260904141653 68 194 1.7 7.8 0.03 0.05 0.05 97 1016.0
20260904140656 67 195 1.7 4.3 0.02 0.03 0.04 97 1016.0
20260904135652 67 182 1.7 7.8 0.03 0.03 0.03 97 1016.0
20260904134655 67 188 0.0 4.3 0.03 0.03 0.03 97 1016.5
20260904133653 67 203 0.0 0.0 0.02 0.02 0.02 97 1016.2
20260904132652 67 203 0.0 1.7 0.02 0.02 0.02 97 1016.4
20260904131652 67 338 0.0 0.0 0.02 0.02 0.02 97 1016.0
20260904130651 67 311 0.0 3.5 0.01 0.01 0.01 97 1016.5
20260904125650 67 191 0.0 4.3 0.00 0.00 0.00 97 1016.5
20260904124650 67 185 0.0 3.5 0.00 0.00 0.00 97 1016.2